Assumption Island Airport

Jump to: basic info | weather | runways | comments

Related pages: nearby airports | nearby navaids | notams | map

Basic information (top)

Codes: FSAS
Location: lon -9.742220, lat 46.506802, elev 10 ft / 3 m msl
Status: small_airport

Weather (top)

Current conditions for Prince Said Ibrahim International Airport 219nm (406km) WSW (rec'd 2014/04/23 10:00Z):

FMCH 231000Z 09014KT 9999 FEW020 SCT025 32/22 Q1013 NOSIG

Airport forecast for Prince Said Ibrahim International Airport 219nm (406km) WSW (rec'd 2014/04/23 06:00Z):

TAF FMCH 230500Z 2306/2412 10008KT 9999 FEW020 SCT030 
      BECMG 2307/2309 20010KT PROB30 
      TEMPO 2310/2316 4000 SHRA FEW018TCU BKN030 
      BECMG 2318/2320 12004KT

Runways (top)

13/31: 3,963 x 75 ft (1,208 x 23 m) — paved — not lighted

Latest comments (top)

No comments yet for Assumption Island Airport

More... (top)

See also NOTAMs and nearby airports and navaids, or visit the Assumption Island Airport page at the main OurAirports website..